Overview Statistics Trail Chart Weather Telemetry Raw packets
 

This is the latest recevied weather packets stored in our database for station/object CT2IRJ-11. If no packets are shown the sender has not sent any weather packets the latest 10 day(s).

<< 1 2 3 4 5 >>
Time Temp. Humidity Pressure Rain* Wind** Luminosity Snow
1788615005 37.22° C 33% 1017.3 hPa 0 mm - 363 W/m² -
1788614706 37.78° C 34% 1017.6 hPa 0 mm - 570 W/m² -
1788614406 38.33° C 34% 1017.3 hPa 0 mm - 234 W/m² -
1788614105 38.33° C 34% 1017.6 hPa 0 mm - 383 W/m² -
1788613805 37.78° C 34% 1017.6 hPa 0 mm - 618 W/m² -
1788613506 37.22° C 34% 1017.6 hPa 0 mm - 667 W/m² -
1788613206 36.67° C 35% 1017.6 hPa 0 mm - 704 W/m² -
1788612906 36.11° C 36% 1017.6 hPa 0 mm - 689 W/m² -
1788612606 36.11° C 36% 1017.6 hPa 0 mm - 393 W/m² -
1788612306 36.67° C 36% 1017.6 hPa 0 mm - 265 W/m² -
1788612005 37.22° C 35% 1017.6 hPa 0 mm - 719 W/m² -
1788611706 35.56° C 38% 1017.6 hPa 0 mm - 720 W/m² -
1788611406 36.11° C 38% 1017.9 hPa 0 mm - 708 W/m² -
1788611107 36.11° C 38% 1017.6 hPa 0 mm - 630 W/m² -
1788610824 35.56° C 40% 1017.9 hPa 0 mm - 618 W/m² -
1788610505 35° C 40% 1017.6 hPa 0 mm - 630 W/m² -
1788610205 35° C 41% 1017.9 hPa 0 mm - 660 W/m² -
1788609907 35° C 41% 1017.9 hPa 0 mm - 324 W/m² -
1788609606 34.44° C 39% 1018.3 hPa 0 mm - 698 W/m² -
1788609334 33.89° C 40% 1018.3 hPa 0 mm - 617 W/m² -
1788609005 33.33° C 40% 1018.3 hPa 0 mm - 268 W/m² -
1788608705 33.89° C 44% 1018.3 hPa 0 mm - 357 W/m² -
1788608405 33.33° C 47% 1018.3 hPa 0 mm - 351 W/m² -
1788608105 33.89° C 48% 1018.3 hPa 0 mm - 392 W/m² -
1788607806 33.89° C 48% 1018.3 hPa 0 mm - 350 W/m² -

* Rain latest hour (hover to see other rain measurements)
** Current wind speed in m/s (hover to see current wind gust speed)